"Pseudo-MPEC" for ZTF02s0

Created 2019 Feb 19 10:18:14 UT using Find_Orb

Click here for an explanation of pseudo-MPECs

 
 Astrometry: 
     ZTF02s0  C2019 02 09.25299609 32 04.70 +15 49 32.4    ~2A0X 19.20RUNEOCPI41
     ZTF02s0  C2019 02 09.25334309 32 03.35 +15 49 38.6    ~2A0X 19.20RUNEOCPI41
     ZTF02s0  C2019 02 09.26451209 31 22.58 +15 53 00.2    ~2A0X 19.02RUNEOCPI41
     ZTF02s0  C2019 02 09.26486009 31 21.26 +15 53 06.5    ~2A0X 19.02RUNEOCPI41
     ZTF02s0  C2019 02 09.28475209 30 07.69 +15 59 02.7    ~2E3I 18.88RUNEOCPI41
     ZTF02s0  C2019 02 09.28509909 30 06.36 +15 59 08.5    ~2E3I 18.88RUNEOCPI41
     ZTF02s0  C2019 02 09.31520509 28 14.05 +16 07 47.7    ~2A23 19.08RUNEOCPI41
     ZTF02s0  C2019 02 09.31555209 28 12.75 +16 07 53.7    ~2A23 19.08RUNEOCPI41
     ZTF02s0  C2019 02 09.34203109 26 33.96 +16 15 08.4    ~2E3I 18.96RUNEOCPI41
     ZTF02s0  C2019 02 09.34237809 26 32.66 +16 15 14.0    ~2E3I 18.96RUNEOCPI41
     ZTF02s0  C2019 02 09.36585309 25 05.40 +16 21 24.2    ~2A23 18.93RUNEOCPI41
     ZTF02s0  C2019 02 09.36620009 25 03.98 +16 21 30.0    ~2A23 18.93RUNEOCPI41

Station data:
(I41) Palomar Mountain--ZTF  (N33.357340 W116.859780)  US/California. 1.2-m
   f/2.44 Oschin Schmidt + CCD.

Orbital elements:  ZTF02s0
   Perigee 2019 Feb 7.435924 +/- 0.11 TT = 10:27:43 (JD 2458521.935924)
Epoch 2019 Feb  9.0 TT = JDT 2458523.5                        AutoNEOCP
q558076.250 +/- 12209               (J2000 equator)
H   31.3  G 0.15                    Peri.   12.99146 +/- 2.0
                                    Node   177.92102 +/- 0.49
e   2.7763726 +/- 0.2               Incl.  153.49367 +/- 0.06
From 12 observations 2019 Feb. 9 (2.7 hr); mean residual 0".82
Residuals in arcseconds: 
190209 I41  .23-  1.0+    190209 I41  .58+  .06-    190209 I41  .73+  .22-    
190209 I41  1.4-  .84+    190209 I41  .01-  .37-    190209 I41  .65+  .20-    
190209 I41  1.4+  1.2-    190209 I41  1.1-  .64+    190209 I41  .85+  .27-    
190209 I41  .80+  1.2-    190209 I41  1.1-  .81+    190209 I41  1.1-  .17+    

Ephemerides (geocentric):
Date (UTC) HH   RA              Dec         delta   r     elong  mag " sig PA
---- -- -- --  -------------   -----------  ------ ------ -----  --- ---- ---
2019 02 19 10  05 35 17.218   +26 28 24.93  .01001 0.9926 114.2 23.6  226 165
2019 02 19 11  05 34 55.971   +26 28 15.98  .01004 0.9926 114.1 23.6  227 164
2019 02 19 12  05 34 34.846   +26 28 06.88  .01007 0.9926 114.0 23.6  228 163
2019 02 19 13  05 34 13.844   +26 27 57.64  .01010 0.9926 113.9 23.6  229 162
2019 02 19 14  05 33 52.963   +26 27 48.25  .01012 0.9926 113.7 23.7  231 162
2019 02 19 15  05 33 32.203   +26 27 38.73  .01015 0.9926 113.6 23.7  232 161
2019 02 19 16  05 33 11.561   +26 27 29.07  .01018 0.9926 113.5 23.7  233 160
2019 02 19 17  05 32 51.038   +26 27 19.28  .01021 0.9926 113.4 23.7  234 159
2019 02 19 18  05 32 30.632   +26 27 09.36  .01023 0.9926 113.3 23.7  236 158
2019 02 19 19  05 32 10.342   +26 26 59.31  .01026 0.9926 113.1 23.7  237 157
2019 02 19 20  05 31 50.168   +26 26 49.13  .01029 0.9926 113.0 23.7  238 157
2019 02 19 21  05 31 30.108   +26 26 38.83  .01032 0.9926 112.9 23.7  240 156
2019 02 19 22  05 31 10.161   +26 26 28.41  .01035 0.9926 112.8 23.7  241 155
2019 02 19 23  05 30 50.326   +26 26 17.88  .01037 0.9926 112.7 23.7  243 154
2019 02 20 00  05 30 30.604   +26 26 07.22  .01040 0.9926 112.6 23.7  244 154
2019 02 20 01  05 30 10.991   +26 25 56.46  .01043 0.9926 112.5 23.8  246 153
2019 02 20 02  05 29 51.489   +26 25 45.58  .01046 0.9926 112.3 23.8  248 152
2019 02 20 03  05 29 32.095   +26 25 34.59  .01049 0.9926 112.2 23.8  249 151
2019 02 20 04  05 29 12.809   +26 25 23.50  .01051 0.9926 112.1 23.8  251 151
2019 02 20 05  05 28 53.629   +26 25 12.30  .01054 0.9926 112.0 23.8  253 150
2019 02 20 06  05 28 34.556   +26 25 01.00  .01057 0.9926 111.9 23.8  254 149
2019 02 20 07  05 28 15.589   +26 24 49.61  .01060 0.9926 111.8 23.8  256 149
2019 02 20 08  05 27 56.725   +26 24 38.11  .01063 0.9926 111.7 23.8  258 148
2019 02 20 09  05 27 37.966   +26 24 26.51  .01065 0.9926 111.5 23.8  260 147
2019 02 20 10  05 27 19.309   +26 24 14.83  .01068 0.9926 111.4 23.8  262 147
2019 02 20 11  05 27 00.753   +26 24 03.05  .01071 0.9926 111.3 23.8  264 146
2019 02 20 12  05 26 42.299   +26 23 51.18  .01074 0.9926 111.2 23.9  266 145
2019 02 20 13  05 26 23.946   +26 23 39.22  .01076 0.9926 111.1 23.9  268 145
2019 02 20 14  05 26 05.691   +26 23 27.17  .01079 0.9926 111.0 23.9  270 144
2019 02 20 15  05 25 47.536   +26 23 15.04  .01082 0.9926 110.9 23.9  272 143
2019 02 20 16  05 25 29.478   +26 23 02.83  .01085 0.9926 110.8 23.9  274 143
2019 02 20 17  05 25 11.517   +26 22 50.53  .01088 0.9926 110.7 23.9  276 142
2019 02 20 18  05 24 53.653   +26 22 38.16  .01090 0.9926 110.6 23.9  278 142
2019 02 20 19  05 24 35.885   +26 22 25.71  .01093 0.9926 110.4 23.9  280 141
2019 02 20 20  05 24 18.211   +26 22 13.18  .01096 0.9926 110.3 23.9  282 140
2019 02 20 21  05 24 00.631   +26 22 00.57  .01099 0.9926 110.2 23.9  284 140
2019 02 20 22  05 23 43.145   +26 21 47.90  .01102 0.9926 110.1 23.9  286 139
2019 02 20 23  05 23 25.752   +26 21 35.15  .01104 0.9926 110.0 24.0  288 139
2019 02 21 00  05 23 08.450   +26 21 22.34  .01107 0.9926 109.9 24.0  291 138
2019 02 21 01  05 22 51.240   +26 21 09.45  .01110 0.9926 109.8 24.0  293 138
2019 02 21 02  05 22 34.120   +26 20 56.50  .01113 0.9926 109.7 24.0  295 137
2019 02 21 03  05 22 17.090   +26 20 43.48  .01115 0.9926 109.6 24.0  297 137
2019 02 21 04  05 22 00.149   +26 20 30.40  .01118 0.9926 109.5 24.0  300 136
2019 02 21 05  05 21 43.297   +26 20 17.26  .01121 0.9926 109.4 24.0  302 136
2019 02 21 06  05 21 26.532   +26 20 04.05  .01124 0.9926 109.3 24.0  304 135
2019 02 21 07  05 21 09.855   +26 19 50.79  .01127 0.9926 109.2 24.0  307 135
2019 02 21 08  05 20 53.264   +26 19 37.47  .01129 0.9926 109.1 24.0  309 134
2019 02 21 09  05 20 36.759   +26 19 24.09  .01132 0.9926 109.0 24.0  311 134